Location: Chiroubles
(46.1812°N, 4.6660°E)
Time: 15:41:44
(UTC+00:00)

Cosmos 1703 Rocket - Pass Details

Date: 15 August 2020
Orbit: 605 x 634 km, 82.5° (Epoch: 22 September)

Event Time Altitude Azimuth Distance (km) Brightness Sun altitude
Rises 21:04:11 0° 347° (NNW) 2,880 8.0 -20.0°
Reaches altitude 10° 21:06:27 10° 343° (NNW) 1,968 7.1 -20.2°
Maximum altitude 21:10:42 56° 265° (W) 725 4.0 -20.7°
Enters shadow 21:12:22 33° 204° (SSW) 1,020 4.4 -20.9°
